User: anonymous   Login
Location: Brno
(49.2000°N, 16.6330°E)
Time: 06:10:12
(UTC+02:00)
Language:

NOSS 3-4 (A) - Orbit

View from above orbital plane
View from above orbital plane
View from above satellite
View from above satellite

Ground track
Ground track

The orbit data is extracted from the following two-line orbital elements,

1 31701U 07027A   15144.93963605 0.00000000  00000-0  00000-0 0    07
2 31701  63.4020 205.6582 0131000  32.2393 327.7606 13.40679685    04
Epoch (UTC): 24 May 2015 22:33:04
Eccentricity: 0.0131000
inclination: 63.4020°
perigee height: 1008 km
apogee height: 1205 km
right ascension of ascending node: 205.6582°
argument of perigee: 32.2393°
revolutions per day: 13.40679685
mean anomaly at epoch: 327.7606°
orbit number at epoch: 0

The dashed part of the orbit path shows where the satellite is in the earth's shadow,  

DLR